Time,TemperatureF,DewpointF,PressureIn,WindDirection,WindDirectionDegrees,WindSpeedMPH,WindSpeedGustMPH,Humidity,HourlyPrecipIn,Conditions,Clouds,dailyrainin,SolarRadiationWatts/m^2,SoftwareType,DateUTC
2013-08-16 00:00:00,77.0,43.0,-100.00,West,273,1.0,5.0,30,0.00,,,0.00,0.000000,,2013-08-16 07:00:00,
2013-08-16 00:11:00,77.0,43.0,-100.00,West,273,1.0,5.0,30,0.00,,,0.00,0.000000,,2013-08-16 07:11:00,
2013-08-16 00:42:00,77.0,42.0,-100.00,ENE,66,4.0,7.0,29,0.00,,,0.00,0.000000,,2013-08-16 07:42:00,
2013-08-16 00:52:00,77.0,42.0,-100.00,ENE,66,4.0,7.0,29,0.00,,,0.00,0.000000,,2013-08-16 07:52:00,
2013-08-16 01:01:00,77.0,42.0,-100.00,ENE,66,4.0,7.0,29,0.00,,,0.00,0.000000,,2013-08-16 08:01:00,
2013-08-16 01:11:00,77.0,42.0,-100.00,ENE,66,4.0,7.0,29,0.00,,,0.00,0.000000,,2013-08-16 08:11:00,
2013-08-16 01:42:00,76.0,42.0,-100.00,East,81,3.0,8.0,30,0.00,,,0.00,0.000000,,2013-08-16 08:42:00,
2013-08-16 01:52:00,76.0,42.0,-100.00,East,81,3.0,8.0,30,0.00,,,0.00,0.000000,,2013-08-16 08:52:00,
2013-08-16 02:01:00,76.0,42.0,-100.00,East,81,3.0,8.0,30,0.00,,,0.00,0.000000,,2013-08-16 09:01:00,
2013-08-16 02:11:00,76.0,42.0,-100.00,East,81,3.0,8.0,30,0.00,,,0.00,0.000000,,2013-08-16 09:11:00,
2013-08-16 02:13:00,74.0,45.0,-100.00,ENE,59,2.0,5.0,35,0.00,,,0.00,0.000000,,2013-08-16 09:13:00,
2013-08-16 02:42:00,74.0,45.0,-100.00,ENE,59,2.0,5.0,35,0.00,,,0.00,0.000000,,2013-08-16 09:42:00,
2013-08-16 02:53:00,74.0,45.0,-100.00,ENE,59,2.0,5.0,35,0.00,,,0.00,0.000000,,2013-08-16 09:53:00,
2013-08-16 03:03:00,74.0,45.0,-100.00,ENE,59,2.0,5.0,35,0.00,,,0.00,0.000000,,2013-08-16 10:03:00,
2013-08-16 03:42:00,73.0,45.0,-100.00,NNE,33,2.0,5.0,37,0.00,,,0.00,0.000000,,2013-08-16 10:42:00,
2013-08-16 03:52:00,73.0,45.0,-100.00,NNE,33,2.0,5.0,37,0.00,,,0.00,0.000000,,2013-08-16 10:52:00,
2013-08-16 04:02:00,73.0,45.0,-100.00,NNE,33,2.0,5.0,37,0.00,,,0.00,0.000000,,2013-08-16 11:02:00,
2013-08-16 04:12:00,73.0,45.0,-100.00,NNE,33,2.0,5.0,37,0.00,,,0.00,0.000000,,2013-08-16 11:12:00,
2013-08-16 04:42:00,73.0,44.0,-100.00,NE,45,2.0,4.0,35,0.00,,,0.00,0.000000,,2013-08-16 11:42:00,
2013-08-16 04:52:00,73.0,44.0,-100.00,NE,45,2.0,4.0,35,0.00,,,0.00,0.000000,,2013-08-16 11:52:00,
2013-08-16 05:02:00,73.0,44.0,-100.00,NE,45,2.0,4.0,35,0.00,,,0.00,0.000000,,2013-08-16 12:02:00,
2013-08-16 05:12:00,73.0,44.0,-100.00,NE,45,2.0,4.0,35,0.00,,,0.00,0.000000,,2013-08-16 12:12:00,
2013-08-16 05:42:00,73.0,43.0,-100.00,NE,43,2.0,4.0,34,0.00,,,0.00,0.000000,,2013-08-16 12:42:00,
2013-08-16 05:52:00,73.0,43.0,-100.00,NE,43,2.0,4.0,34,0.00,,,0.00,0.000000,,2013-08-16 12:52:00,
2013-08-16 06:02:00,73.0,43.0,-100.00,NE,43,2.0,4.0,34,0.00,,,0.00,0.000000,,2013-08-16 13:02:00,
2013-08-16 06:11:00,73.0,43.0,-100.00,NE,43,2.0,4.0,34,0.00,,,0.00,0.000000,,2013-08-16 13:11:00,
2013-08-16 06:42:00,72.0,43.0,-100.00,ENE,66,4.0,6.0,35,0.00,,,0.00,0.000000,,2013-08-16 13:42:00,
2013-08-16 06:53:00,72.0,43.0,-100.00,ENE,66,4.0,6.0,35,0.00,,,0.00,0.000000,,2013-08-16 13:53:00,
2013-08-16 07:01:00,72.0,43.0,-100.00,ENE,66,4.0,6.0,35,0.00,,,0.00,0.000000,,2013-08-16 14:01:00,
2013-08-16 07:11:00,72.0,43.0,-100.00,ENE,66,4.0,6.0,35,0.00,,,0.00,0.000000,,2013-08-16 14:11:00,
2013-08-16 07:42:00,75.0,45.0,-100.00,NE,42,3.0,6.0,35,0.00,,,0.00,42.000000,,2013-08-16 14:42:00,
2013-08-16 07:52:00,75.0,45.0,-100.00,NE,42,3.0,6.0,35,0.00,,,0.00,42.000000,,2013-08-16 14:52:00,
2013-08-16 08:01:00,75.0,45.0,-100.00,NE,42,3.0,6.0,35,0.00,,,0.00,42.000000,,2013-08-16 15:01:00,
2013-08-16 08:12:00,75.0,45.0,-100.00,NE,42,3.0,6.0,35,0.00,,,0.00,42.000000,,2013-08-16 15:12:00,
2013-08-16 10:13:00,89.0,53.0,-100.00,WSW,239,6.0,11.0,29,-99.99,,,0.00,612.000000,,2013-08-16 17:13:00,
2013-08-16 11:00:00,89.0,53.0,-100.00,WSW,239,6.0,11.0,29,-99.99,,,0.00,612.000000,,2013-08-16 18:00:00,
2013-08-16 11:06:00,89.0,53.0,-100.00,WSW,239,6.0,11.0,29,-99.99,,,0.00,612.000000,,2013-08-16 18:06:00,
2013-08-16 11:13:00,90.0,52.0,-100.00,SW,228,6.0,12.0,28,0.00,,,0.00,757.000000,,2013-08-16 18:13:00,
2013-08-16 11:50:00,-999.0,-99.9,-100.00,SW,228,6.0,12.0,28,0.00,,,0.00,757.000000,,2013-08-16 18:50:00,
2013-08-16 12:02:00,90.0,52.0,-100.00,SW,228,6.0,12.0,28,0.00,,,0.00,757.000000,,2013-08-16 19:02:00,
2013-08-16 12:46:00,93.0,53.0,-100.00,West,269,6.0,12.0,26,0.00,,,0.00,859.000000,,2013-08-16 19:46:00,
2013-08-16 12:55:00,93.0,53.0,-100.00,West,269,6.0,12.0,26,0.00,,,0.00,859.000000,,2013-08-16 19:55:00,
2013-08-16 13:02:00,93.0,53.0,-100.00,West,269,6.0,12.0,26,0.00,,,0.00,859.000000,,2013-08-16 20:02:00,
2013-08-16 13:11:00,93.0,53.0,-100.00,West,269,6.0,12.0,26,0.00,,,0.00,859.000000,,2013-08-16 20:11:00,
2013-08-16 13:44:00,94.0,49.0,-100.00,WSW,255,7.0,11.0,22,0.00,,,0.00,899.000000,,2013-08-16 20:44:00,
2013-08-16 13:52:00,94.0,49.0,-100.00,WSW,255,7.0,11.0,22,0.00,,,0.00,899.000000,,2013-08-16 20:52:00,
2013-08-16 14:01:00,94.0,49.0,-100.00,WSW,255,7.0,11.0,22,0.00,,,0.00,899.000000,,2013-08-16 21:01:00,
2013-08-16 14:11:00,94.0,49.0,-100.00,WSW,255,7.0,11.0,22,0.00,,,0.00,899.000000,,2013-08-16 21:11:00,
2013-08-16 14:13:00,96.0,50.0,-100.00,West,278,5.0,13.0,21,0.00,,,0.00,882.000000,,2013-08-16 21:13:00,
2013-08-16 14:40:00,-999.0,-99.9,-100.00,West,278,5.0,13.0,-999,0.00,,,0.00,882.000000,,2013-08-16 21:40:00,
2013-08-16 14:54:00,96.0,50.0,-100.00,West,278,5.0,13.0,21,0.00,,,0.00,882.000000,,2013-08-16 21:54:00,
2013-08-16 15:07:00,96.0,50.0,-100.00,West,278,5.0,13.0,21,0.00,,,0.00,882.000000,,2013-08-16 22:07:00,
2013-08-16 15:43:00,97.0,48.0,-100.00,WSW,242,6.0,12.0,19,0.00,,,0.00,809.000000,,2013-08-16 22:43:00,
2013-08-16 15:52:00,97.0,48.0,-100.00,WSW,242,6.0,12.0,19,0.00,,,0.00,809.000000,,2013-08-16 22:52:00,
2013-08-16 16:09:00,97.0,48.0,-100.00,WSW,242,6.0,12.0,19,0.00,,,0.00,809.000000,,2013-08-16 23:09:00,
2013-08-16 16:42:00,96.0,47.0,-100.00,West,274,6.0,13.0,19,0.00,,,0.00,670.000000,,2013-08-16 23:42:00,
2013-08-16 16:52:00,96.0,47.0,-100.00,West,274,6.0,13.0,19,0.00,,,0.00,670.000000,,2013-08-16 23:52:00,
2013-08-16 17:01:00,96.0,47.0,-100.00,West,274,6.0,13.0,19,0.00,,,0.00,670.000000,,2013-08-17 00:01:00,
2013-08-16 17:11:00,96.0,47.0,-100.00,West,274,6.0,13.0,19,0.00,,,0.00,670.000000,,2013-08-17 00:11:00,
2013-08-16 17:42:00,98.0,49.0,-100.00,West,273,5.0,11.0,19,0.00,,,0.00,493.000000,,2013-08-17 00:42:00,
2013-08-16 17:52:00,98.0,49.0,-100.00,West,273,5.0,11.0,19,0.00,,,0.00,493.000000,,2013-08-17 00:52:00,
2013-08-16 18:01:00,98.0,49.0,-100.00,West,273,5.0,11.0,19,0.00,,,0.00,493.000000,,2013-08-17 01:01:00,
2013-08-16 18:11:00,98.0,49.0,-100.00,West,273,5.0,11.0,19,0.00,,,0.00,493.000000,,2013-08-17 01:11:00,
2013-08-16 18:42:00,96.0,46.0,-100.00,WNW,283,4.0,9.0,18,0.00,,,0.00,300.000000,,2013-08-17 01:42:00,
2013-08-16 18:52:00,96.0,46.0,-100.00,WNW,283,4.0,9.0,18,0.00,,,0.00,300.000000,,2013-08-17 01:52:00,
2013-08-16 19:01:00,96.0,46.0,-100.00,WNW,283,4.0,9.0,18,0.00,,,0.00,300.000000,,2013-08-17 02:01:00,
2013-08-16 19:11:00,96.0,46.0,-100.00,WNW,283,4.0,9.0,18,0.00,,,0.00,300.000000,,2013-08-17 02:11:00,
2013-08-16 19:42:00,91.0,44.0,-100.00,WSW,248,5.0,9.0,20,0.00,,,0.00,110.000000,,2013-08-17 02:42:00,
2013-08-16 19:52:00,91.0,44.0,-100.00,WSW,248,5.0,9.0,20,0.00,,,0.00,110.000000,,2013-08-17 02:52:00,
2013-08-16 20:01:00,91.0,44.0,-100.00,WSW,248,5.0,9.0,20,0.00,,,0.00,110.000000,,2013-08-17 03:01:00,
2013-08-16 20:11:00,91.0,44.0,-100.00,WSW,248,5.0,9.0,20,0.00,,,0.00,110.000000,,2013-08-17 03:11:00,
2013-08-16 20:43:00,85.0,49.0,-100.00,South,191,0.0,6.0,29,0.00,,,0.00,6.000000,,2013-08-17 03:43:00,
2013-08-16 20:53:00,85.0,49.0,-100.00,South,191,0.0,6.0,29,0.00,,,0.00,6.000000,,2013-08-17 03:53:00,
2013-08-16 21:03:00,85.0,49.0,-100.00,South,191,0.0,6.0,29,0.00,,,0.00,6.000000,,2013-08-17 04:03:00,
2013-08-16 21:12:00,85.0,49.0,-100.00,South,191,0.0,6.0,29,0.00,,,0.00,6.000000,,2013-08-17 04:12:00,
2013-08-16 21:44:00,81.0,48.0,-100.00,NE,56,6.0,8.0,32,0.00,,,0.00,0.000000,,2013-08-17 04:44:00,
2013-08-16 21:53:00,81.0,48.0,-100.00,NE,56,6.0,8.0,32,0.00,,,0.00,0.000000,,2013-08-17 04:53:00,
2013-08-16 22:03:00,81.0,48.0,-100.00,NE,56,6.0,8.0,32,0.00,,,0.00,0.000000,,2013-08-17 05:03:00,
2013-08-16 22:12:00,81.0,48.0,-100.00,NE,56,6.0,8.0,32,0.00,,,0.00,0.000000,,2013-08-17 05:12:00,
2013-08-16 22:42:00,78.0,48.0,-100.00,NNE,28,3.0,6.0,35,0.00,,,0.00,0.000000,,2013-08-17 05:42:00,
2013-08-16 22:52:00,78.0,48.0,-100.00,NNE,28,3.0,6.0,35,0.00,,,0.00,0.000000,,2013-08-17 05:52:00,
2013-08-16 23:01:00,78.0,48.0,-100.00,NNE,28,3.0,6.0,35,0.00,,,0.00,0.000000,,2013-08-17 06:01:00,
2013-08-16 23:12:00,78.0,48.0,-100.00,NNE,28,3.0,6.0,35,0.00,,,0.00,0.000000,,2013-08-17 06:12:00,
2013-08-16 23:42:00,77.0,46.0,-100.00,NE,49,2.0,5.0,34,0.00,,,0.00,0.000000,,2013-08-17 06:42:00,
2013-08-16 23:52:00,77.0,46.0,-100.00,NE,49,2.0,5.0,34,0.00,,,0.00,0.000000,,2013-08-17 06:52:00,